QPF
0.06 0.07 0.08 0.10 0.09 0.07 0.05 0.04 0.04 0.04 0.06 0.05 0.04 0.04 0.04 0.04 0.03 0.05 0.06 0.07 0.09 0.09 0.09 0.07 0.04 0.03 0.02 0.01 0.01 0.02 0.02 0.03 0.03 0.03 0.02 0.03 0.04 0.05 0.05 0.04 0.03 0.02 0.01
0.06 0.07 0.09 0.09 0.08 0.08 0.06 0.04 0.03 0.04 0.04 0.05 0.05 0.04 0.03 0.03 0.03 0.04 0.06 0.06 0.06 0.08 0.08 0.09 0.07 0.04 0.02 0.01 0.01 0.01 0.02 0.02 0.02 0.02 0.02 0.02 0.03 0.04 0.04 0.04 0.04 0.04 0.03
0.05 0.07 0.09 0.08 0.07 0.06 0.06 0.06 0.04 0.03 0.04 0.04 0.05 0.04 0.03 0.03 0.03 0.03 0.05 0.06 0.05 0.06 0.06 0.07 0.08 0.06 0.04 0.02 0.01 0.01 0.01 0.02 0.02 0.02 0.02 0.02 0.03 0.03 0.04 0.04 0.04 0.04 0.04
0.05 0.06 0.07 0.07 0.06 0.05 0.05 0.05 0.05 0.05 0.04 0.04 0.04 0.04 0.04 0.03 0.03 0.04 0.04 0.05 0.05 0.06 0.06 0.06 0.06 0.06 0.05 0.03 0.02 0.01 0.01 0.01 0.01 0.02 0.02 0.02 0.03 0.03 0.04 0.04 0.04 0.04 0.04
0.05 0.05 0.06 0.06 0.06 0.05 0.05 0.04 0.03 0.04 0.05 0.05 0.05 0.04 0.04 0.04 0.04 0.04 0.05 0.06 0.06 0.06 0.06 0.06 0.06 0.07 0.05 0.04 0.03 0.02 0.02 0.02 0.02 0.02 0.02 0.02 0.03 0.04 0.04 0.03 0.03 0.03 0.04
0.06 0.06 0.06 0.05 0.05 0.05 0.04 0.04 0.03 0.02 0.03 0.05 0.06 0.07 0.06 0.05 0.05 0.05 0.06 0.06 0.06 0.06 0.05 0.05 0.06 0.07 0.06 0.05 0.04 0.03 0.03 0.03 0.02 0.02 0.02 0.02 0.02 0.02 0.03 0.03 0.03 0.04 0.05
0.06 0.06 0.07 0.06 0.04 0.04 0.04 0.05 0.04 0.03 0.03 0.04 0.05 0.07 0.08 0.07 0.06 0.06 0.06 0.07 0.07 0.06 0.05 0.04 0.05 0.06 0.06 0.05 0.05 0.05 0.04 0.03 0.03 0.03 0.03 0.02 0.02 0.02 0.02 0.04 0.04 0.04 0.03
0.06 0.07 0.07 0.07 0.06 0.04 0.04 0.04 0.04 0.04 0.04 0.04 0.06 0.07 0.08 0.07 0.07 0.07 0.07 0.07 0.07 0.06 0.05 0.04 0.03 0.04 0.04 0.05 0.05 0.06 0.05 0.04 0.04 0.03 0.02 0.02 0.02 0.02 0.02 0.03 0.04 0.05 0.04
0.06 0.07 0.07 0.07 0.08 0.06 0.04 0.04 0.04 0.04 0.04 0.04 0.04 0.06 0.08 0.07 0.07 0.06 0.07 0.07 0.07 0.06 0.06 0.06 0.04 0.03 0.03 0.04 0.05 0.05 0.06 0.05 0.04 0.03 0.03 0.03 0.03 0.04 0.04 0.04 0.04 0.05 0.05
0.08 0.08 0.07 0.08 0.09 0.08 0.06 0.04 0.03 0.03 0.03 0.02 0.02 0.03 0.05 0.06 0.08 0.06 0.06 0.08 0.09 0.07 0.06 0.06 0.06 0.05 0.04 0.04 0.05 0.05 0.06 0.05 0.04 0.04 0.03 0.03 0.03 0.03 0.03 0.03 0.03 0.03 0.03
0.08 0.09 0.07 0.07 0.08 0.08 0.07 0.05 0.04 0.04 0.03 0.03 0.03 0.03 0.05 0.07 0.10 0.09 0.07 0.08 0.10 0.10 0.08 0.07 0.07 0.07 0.06 0.05 0.06 0.06 0.05 0.05 0.04 0.04 0.04 0.03 0.03 0.03 0.03 0.02 0.02 0.02 0.02
0.08 0.09 0.08 0.07 0.07 0.08 0.07 0.06 0.05 0.05 0.04 0.05 0.04 0.04 0.05 0.06 0.08 0.11 0.10 0.09 0.10 0.11 0.09 0.08 0.08 0.08 0.08 0.07 0.06 0.07 0.06 0.06 0.06 0.06 0.05 0.04 0.04 0.03 0.03 0.03 0.02 0.01 0.01
0.09 0.08 0.09 0.08 0.07 0.08 0.09 0.08 0.07 0.07 0.07 0.08 0.05 0.04 0.05 0.06 0.06 0.08 0.10 0.09 0.09 0.09 0.09 0.09 0.08 0.08 0.08 0.07 0.07 0.07 0.08 0.07 0.06 0.06 0.05 0.04 0.04 0.03 0.03 0.03 0.03 0.02 0.02
0.09 0.09 0.10 0.09 0.08 0.08 0.09 0.10 0.09 0.08 0.09 0.10 0.08 0.06 0.06 0.05 0.05 0.06 0.08 0.08 0.08 0.09 0.08 0.09 0.08 0.07 0.07 0.07 0.07 0.07 0.07 0.07 0.06 0.05 0.04 0.04 0.04 0.04 0.03 0.03 0.03 0.04 0.04
0.08 0.09 0.09 0.10 0.10 0.10 0.10 0.11 0.11 0.10 0.12 0.13 0.11 0.08 0.07 0.06 0.06 0.07 0.07 0.07 0.08 0.09 0.08 0.08 0.08 0.07 0.07 0.07 0.07 0.06 0.07 0.07 0.06 0.05 0.04 0.04 0.05 0.05 0.04 0.04 0.04 0.04 0.04
0.06 0.07 0.08 0.09 0.10 0.11 0.11 0.11 0.11 0.11 0.11 0.12 0.11 0.09 0.08 0.07 0.08 0.08 0.07 0.07 0.07 0.08 0.09 0.10 0.08 0.07 0.07 0.07 0.07 0.06 0.05 0.05 0.05 0.04 0.04 0.04 0.05 0.05 0.05 0.04 0.04 0.04 0.04
0.03 0.04 0.06 0.07 0.09 0.10 0.10 0.10 0.10 0.10 0.09 0.10 0.10 0.09 0.09 0.08 0.08 0.08 0.09 0.10 0.10 0.09 0.09 0.09 0.08 0.06 0.06 0.06 0.06 0.05 0.05 0.04 0.04 0.04 0.04 0.04 0.04 0.05 0.05 0.05 0.05 0.05 0.04
0.02 0.03 0.04 0.05 0.07 0.08 0.09 0.10 0.10 0.09 0.09 0.09 0.10 0.10 0.10 0.10 0.09 0.09 0.10 0.11 0.13 0.12 0.10 0.09 0.07 0.06 0.06 0.06 0.06 0.06 0.05 0.05 0.04 0.03 0.03 0.03 0.04 0.04 0.05 0.04 0.05 0.05 0.05
0.01 0.02 0.03 0.04 0.05 0.07 0.08 0.09 0.10 0.10 0.09 0.10 0.09 0.09 0.10 0.11 0.10 0.09 0.09 0.09 0.10 0.11 0.10 0.10 0.08 0.07 0.06 0.06 0.05 0.05 0.05 0.05 0.04 0.04 0.04 0.03 0.03 0.04 0.04 0.04 0.04 0.05 0.06
0.01 0.02 0.03 0.04 0.04 0.05 0.06 0.07 0.08 0.08 0.08 0.08 0.09 0.10 0.10 0.10 0.09 0.10 0.09 0.09 0.09 0.09 0.10 0.09 0.09 0.08 0.07 0.06 0.06 0.05 0.05 0.05 0.05 0.05 0.05 0.05 0.05 0.04 0.04 0.05 0.05 0.05 0.05
0.01 0.02 0.02 0.03 0.04 0.04 0.05 0.06 0.07 0.07 0.07 0.07 0.08 0.09 0.09 0.09 0.09 0.10 0.10 0.09 0.09 0.09 0.10 0.09 0.09 0.09 0.09 0.08 0.08 0.07 0.07 0.06 0.06 0.06 0.06 0.06 0.06 0.06 0.05 0.05 0.05 0.05 0.05
0.02 0.02 0.02 0.02 0.03 0.04 0.04 0.04 0.05 0.06 0.06 0.06 0.06 0.07 0.07 0.06 0.07 0.07 0.08 0.09 0.09 0.09 0.09 0.09 0.09 0.09 0.09 0.08 0.08 0.08 0.08 0.07 0.07 0.07 0.07 0.07 0.07 0.07 0.06 0.06 0.05 0.05 0.05
0.02 0.02 0.02 0.02 0.03 0.03 0.03 0.03 0.04 0.04 0.04 0.04 0.05 0.05 0.05 0.05 0.05 0.06 0.06 0.08 0.08 0.08 0.08 0.08 0.09 0.09 0.09 0.08 0.07 0.07 0.08 0.08 0.08 0.08 0.08 0.07 0.07 0.07 0.06 0.05 0.05 0.05 0.04
0.02 0.02 0.02 0.02 0.02 0.02 0.02 0.03 0.03 0.03 0.03 0.03 0.03 0.03 0.04 0.04 0.04 0.04 0.05 0.06 0.06 0.06 0.07 0.07 0.07 0.08 0.08 0.08 0.07 0.07 0.07 0.07 0.07 0.07 0.07 0.07 0.06 0.06 0.06 0.05 0.05 0.04 0.04
0.02 0.02 0.02 0.02 0.02 0.02 0.02 0.02 0.02 0.03 0.02 0.02 0.03 0.03 0.03 0.03 0.03 0.03 0.03 0.04 0.04 0.05 0.05 0.05 0.05 0.06 0.06 0.06 0.06 0.06 0.06 0.06 0.06 0.07 0.07 0.07 0.07 0.06 0.06 0.06 0.05 0.04 0.04
0.01 0.01 0.01 0.01 0.01 0.01 0.01 0.02 0.02 0.02 0.02 0.02 0.02 0.02 0.02 0.02 0.02 0.02 0.02 0.03 0.03 0.03 0.03 0.04 0.04 0.04 0.05 0.05 0.05 0.05 0.05 0.05 0.05 0.05 0.06 0.06 0.07 0.06 0.06 0.06 0.05 0.05 0.04
MSLP
1021.67 1021.44 1021.25 1021.12 1021.02 1020.95 1020.88 1020.79 1020.66 1020.51 1020.34 1020.18 1020.07 1020.02 1020.07 1020.21 1020.44 1020.73 1021.05 1021.36 1021.62 1021.82 1021.95 1022.01 1022.03 1022.04 1022.07 1022.15 1022.31 1022.54 1022.83 1023.18 1023.56 1023.94 1024.30 1024.61 1024.87 1025.07 1025.22 1025.32 1025.39 1025.45 1025.50
1021.75 1021.47 1021.23 1021.03 1020.88 1020.75 1020.63 1020.50 1020.34 1020.15 1019.95 1019.77 1019.62 1019.53 1019.53 1019.63 1019.83 1020.10 1020.42 1020.75 1021.06 1021.32 1021.52 1021.66 1021.75 1021.82 1021.89 1022.00 1022.17 1022.40 1022.70 1023.06 1023.45 1023.85 1024.23 1024.58 1024.88 1025.12 1025.30 1025.44 1025.53 1025.60 1025.66
1021.84 1021.50 1021.21 1020.95 1020.74 1020.56 1020.39 1020.21 1020.03 1019.82 1019.60 1019.38 1019.19 1019.06 1019.00 1019.03 1019.17 1019.38 1019.67 1019.98 1020.30 1020.59 1020.84 1021.04 1021.20 1021.34 1021.47 1021.63 1021.84 1022.11 1022.44 1022.82 1023.24 1023.67 1024.10 1024.49 1024.83 1025.11 1025.33 1025.50 1025.61 1025.70 1025.76
1021.88 1021.50 1021.15 1020.83 1020.56 1020.33 1020.12 1019.92 1019.72 1019.49 1019.26 1019.02 1018.79 1018.60 1018.48 1018.44 1018.48 1018.62 1018.83 1019.10 1019.39 1019.68 1019.95 1020.20 1020.42 1020.62 1020.82 1021.04 1021.31 1021.62 1022.00 1022.43 1022.89 1023.37 1023.84 1024.28 1024.66 1024.99 1025.25 1025.44 1025.58 1025.68 1025.75
1021.84 1021.41 1021.01 1020.64 1020.32 1020.05 1019.81 1019.59 1019.38 1019.15 1018.91 1018.66 1018.40 1018.16 1017.96 1017.83 1017.78 1017.82 1017.94 1018.13 1018.37 1018.64 1018.91 1019.19 1019.45 1019.71 1019.98 1020.26 1020.59 1020.96 1021.39 1021.86 1022.37 1022.89 1023.41 1023.89 1024.32 1024.69 1024.98 1025.21 1025.37 1025.49 1025.57
1021.68 1021.21 1020.76 1020.35 1019.99 1019.68 1019.43 1019.20 1018.99 1018.77 1018.53 1018.26 1017.98 1017.69 1017.42 1017.20 1017.05 1016.98 1017.00 1017.10 1017.28 1017.51 1017.78 1018.07 1018.37 1018.68 1019.00 1019.34 1019.73 1020.15 1020.62 1021.14 1021.68 1022.24 1022.80 1023.32 1023.79 1024.19 1024.52 1024.78 1024.97 1025.11 1025.21
1021.39 1020.88 1020.39 1019.94 1019.55 1019.22 1018.96 1018.73 1018.53 1018.31 1018.08 1017.81 1017.50 1017.16 1016.83 1016.52 1016.27 1016.10 1016.02 1016.03 1016.15 1016.34 1016.59 1016.89 1017.22 1017.57 1017.95 1018.35 1018.78 1019.24 1019.75 1020.29 1020.86 1021.44 1022.02 1022.57 1023.07 1023.50 1023.87 1024.16 1024.39 1024.56 1024.69
1020.95 1020.42 1019.90 1019.42 1019.00 1018.66 1018.39 1018.17 1017.97 1017.76 1017.53 1017.24 1016.91 1016.53 1016.13 1015.75 1015.41 1015.14 1014.98 1014.92 1014.98 1015.14 1015.38 1015.69 1016.05 1016.45 1016.87 1017.31 1017.78 1018.28 1018.81 1019.37 1019.95 1020.54 1021.13 1021.69 1022.21 1022.67 1023.07 1023.40 1023.66 1023.87 1024.04
1020.41 1019.85 1019.31 1018.81 1018.38 1018.02 1017.74 1017.51 1017.30 1017.09 1016.85 1016.54 1016.18 1015.75 1015.30 1014.85 1014.43 1014.10 1013.86 1013.75 1013.77 1013.91 1014.16 1014.49 1014.88 1015.32 1015.78 1016.27 1016.78 1017.30 1017.85 1018.42 1019.00 1019.59 1020.18 1020.75 1021.29 1021.77 1022.20 1022.57 1022.88 1023.13 1023.34
1019.81 1019.23 1018.67 1018.15 1017.70 1017.33 1017.02 1016.77 1016.54 1016.30 1016.03 1015.69 1015.28 1014.81 1014.31 1013.80 1013.33 1012.94 1012.66 1012.51 1012.51 1012.65 1012.91 1013.27 1013.71 1014.19 1014.70 1015.24 1015.78 1016.33 1016.90 1017.48 1018.06 1018.66 1019.25 1019.83 1020.38 1020.89 1021.34 1021.75 1022.10 1022.40 1022.65
1019.20 1018.61 1018.03 1017.48 1017.00 1016.59 1016.24 1015.95 1015.67 1015.39 1015.06 1014.68 1014.22 1013.71 1013.16 1012.61 1012.10 1011.68 1011.37 1011.22 1011.22 1011.37 1011.66 1012.06 1012.54 1013.07 1013.63 1014.22 1014.80 1015.39 1015.98 1016.58 1017.18 1017.79 1018.39 1018.98 1019.55 1020.08 1020.57 1021.01 1021.39 1021.74 1022.03
1018.62 1018.02 1017.41 1016.82 1016.29 1015.82 1015.42 1015.05 1014.71 1014.36 1013.97 1013.53 1013.02 1012.46 1011.88 1011.30 1010.78 1010.35 1010.04 1009.90 1009.91 1010.09 1010.42 1010.86 1011.38 1011.97 1012.59 1013.22 1013.86 1014.50 1015.13 1015.76 1016.39 1017.02 1017.65 1018.26 1018.85 1019.40 1019.92 1020.39 1020.81 1021.18 1021.50
1018.11 1017.47 1016.82 1016.18 1015.58 1015.04 1014.54 1014.09 1013.66 1013.23 1012.77 1012.26 1011.71 1011.12 1010.52 1009.95 1009.43 1009.02 1008.74 1008.61 1008.66 1008.88 1009.24 1009.72 1010.29 1010.93 1011.61 1012.30 1012.99 1013.68 1014.36 1015.04 1015.72 1016.38 1017.04 1017.68 1018.30 1018.88 1019.42 1019.91 1020.35 1020.74 1021.08
1017.64 1016.96 1016.25 1015.54 1014.85 1014.21 1013.62 1013.07 1012.54 1012.02 1011.49 1010.94 1010.36 1009.76 1009.17 1008.62 1008.14 1007.77 1007.53 1007.46 1007.55 1007.80 1008.20 1008.72 1009.34 1010.02 1010.74 1011.48 1012.23 1012.98 1013.72 1014.46 1015.18 1015.89 1016.59 1017.26 1017.90 1018.51 1019.06 1019.56 1020.01 1020.41 1020.74
1017.17 1016.43 1015.65 1014.85 1014.07 1013.34 1012.64 1011.99 1011.38 1010.78 1010.20 1009.62 1009.04 1008.46 1007.91 1007.42 1007.01 1006.71 1006.54 1006.53 1006.67 1006.97 1007.41 1007.96 1008.60 1009.31 1010.07 1010.85 1011.65 1012.45 1013.24 1014.03 1014.81 1015.56 1016.30 1017.00 1017.66 1018.27 1018.83 1019.33 1019.77 1020.15 1020.48
1016.60 1015.80 1014.94 1014.07 1013.21 1012.38 1011.61 1010.89 1010.21 1009.57 1008.97 1008.39 1007.84 1007.33 1006.86 1006.46 1006.14 1005.94 1005.86 1005.93 1006.13 1006.48 1006.94 1007.52 1008.18 1008.90 1009.68 1010.48 1011.31 1012.14 1012.97 1013.80 1014.61 1015.40 1016.16 1016.88 1017.54 1018.15 1018.70 1019.18 1019.60 1019.96 1020.25
1015.86 1015.00 1014.08 1013.16 1012.24 1011.37 1010.55 1009.79 1009.10 1008.46 1007.88 1007.35 1006.87 1006.45 1006.10 1005.82 1005.63 1005.54 1005.57 1005.72 1006.00 1006.38 1006.87 1007.46 1008.12 1008.84 1009.61 1010.42 1011.25 1012.09 1012.94 1013.78 1014.60 1015.40 1016.16 1016.87 1017.53 1018.11 1018.63 1019.08 1019.46 1019.78 1020.04
1014.87 1013.98 1013.04 1012.10 1011.18 1010.32 1009.51 1008.78 1008.12 1007.53 1007.02 1006.58 1006.22 1005.92 1005.71 1005.57 1005.52 1005.57 1005.71 1005.96 1006.30 1006.72 1007.23 1007.81 1008.46 1009.15 1009.90 1010.67 1011.48 1012.30 1013.13 1013.95 1014.76 1015.54 1016.27 1016.95 1017.57 1018.12 1018.59 1019.00 1019.34 1019.61 1019.83
1013.62 1012.73 1011.83 1010.94 1010.08 1009.29 1008.56 1007.92 1007.35 1006.87 1006.48 1006.17 1005.95 1005.80 1005.74 1005.76 1005.86 1006.04 1006.30 1006.62 1007.02 1007.48 1007.99 1008.56 1009.17 1009.82 1010.51 1011.23 1011.98 1012.75 1013.52 1014.30 1015.06 1015.78 1016.46 1017.09 1017.65 1018.14 1018.55 1018.90 1019.19 1019.42 1019.59
1012.15 1011.33 1010.52 1009.75 1009.03 1008.38 1007.80 1007.30 1006.89 1006.57 1006.33 1006.17 1006.10 1006.12 1006.22 1006.38 1006.62 1006.92 1007.27 1007.67 1008.11 1008.59 1009.09 1009.62 1010.18 1010.77 1011.38 1012.02 1012.69 1013.37 1014.06 1014.75 1015.43 1016.08 1016.68 1017.22 1017.71 1018.13 1018.48 1018.77 1019.00 1019.18 1019.30
1010.58 1009.88 1009.24 1008.65 1008.13 1007.69 1007.32 1007.02 1006.80 1006.66 1006.59 1006.60 1006.70 1006.86 1007.10 1007.40 1007.75 1008.14 1008.57 1009.02 1009.48 1009.95 1010.43 1010.90 1011.39 1011.90 1012.41 1012.95 1013.51 1014.08 1014.66 1015.25 1015.82 1016.36 1016.87 1017.32 1017.72 1018.06 1018.34 1018.56 1018.73 1018.86 1018.94
1009.08 1008.57 1008.14 1007.79 1007.52 1007.32 1007.19 1007.12 1007.11 1007.15 1007.26 1007.44 1007.67 1007.97 1008.32 1008.72 1009.15 1009.61 1010.07 1010.54 1011.00 1011.44 1011.86 1012.27 1012.67 1013.07 1013.48 1013.90 1014.33 1014.78 1015.24 1015.70 1016.15 1016.58 1016.98 1017.33 1017.64 1017.89 1018.10 1018.25 1018.37 1018.44 1018.48
1007.86 1007.57 1007.39 1007.31 1007.30 1007.36 1007.47 1007.62 1007.81 1008.03 1008.30 1008.60 1008.95 1009.34 1009.76 1010.22 1010.69 1011.17 1011.64 1012.10 1012.52 1012.91 1013.26 1013.59 1013.89 1014.17 1014.46 1014.74 1015.05 1015.36 1015.69 1016.02 1016.35 1016.66 1016.95 1017.21 1017.42 1017.60 1017.73 1017.82 1017.88 1017.90 1017.89
1007.10 1007.05 1007.12 1007.28 1007.52 1007.82 1008.14 1008.48 1008.84 1009.20 1009.58 1009.98 1010.40 1010.83 1011.29 1011.76 1012.23 1012.70 1013.14 1013.55 1013.91 1014.23 1014.50 1014.72 1014.91 1015.08 1015.24 1015.40 1015.57 1015.76 1015.96 1016.17 1016.38 1016.58 1016.77 1016.94 1017.07 1017.17 1017.24 1017.27 1017.27 1017.25 1017.19
1006.93 1007.10 1007.38 1007.75 1008.19 1008.66 1009.14 1009.62 1010.09 1010.54 1010.98 1011.42 1011.86 1012.31 1012.76 1013.21 1013.64 1014.06 1014.45 1014.79 1015.07 1015.30 1015.47 1015.59 1015.67 1015.73 1015.77 1015.80 1015.86 1015.92 1016.01 1016.11 1016.22 1016.33 1016.43 1016.51 1016.57 1016.61 1016.62 1016.60 1016.56 1016.49 1016.39
1007.39 1007.72 1008.16 1008.68 1009.24 1009.81 1010.38 1010.93 1011.44 1011.92 1012.38 1012.81 1013.23 1013.64 1014.05 1014.44 1014.82 1015.16 1015.47 1015.73 1015.93 1016.06 1016.14 1016.16 1016.13 1016.08 1016.01 1015.94 1015.89 1015.86 1015.84 1015.85 1015.87 1015.90 1015.94 1015.95 1015.96 1015.94 1015.90 1015.84 1015.76 1015.66 1015.53
Thickness
5418 5422 5425 5429 5433 5437 5441 5445 5449 5454 5459 5464 5468 5473 5478 5483 5487 5490 5494 5498 5500 5502 5505 5508 5511 5514 5516 5517 5519 5521 5523 5525 5527 5530 5532 5534 5536 5538 5539 5540 5541 5543 5544
5407 5411 5415 5418 5423 5427 5431 5435 5440 5444 5449 5454 5458 5463 5468 5473 5477 5481 5484 5488 5491 5494 5496 5499 5502 5505 5507 5508 5510 5512 5513 5515 5517 5519 5520 5522 5525 5527 5529 5530 5531 5533 5535
5397 5401 5405 5409 5413 5418 5421 5425 5429 5434 5439 5444 5448 5453 5459 5463 5467 5472 5476 5479 5483 5486 5488 5490 5493 5495 5498 5499 5501 5503 5504 5505 5507 5508 5511 5512 5514 5516 5518 5519 5521 5522 5524
5388 5392 5396 5400 5404 5407 5411 5415 5419 5424 5429 5434 5438 5444 5449 5453 5458 5462 5466 5470 5474 5478 5480 5482 5484 5486 5489 5491 5492 5493 5494 5495 5496 5498 5500 5502 5504 5506 5507 5509 5510 5511 5513
5378 5384 5389 5392 5394 5397 5401 5405 5409 5414 5418 5424 5428 5433 5438 5443 5449 5452 5456 5461 5465 5468 5471 5473 5475 5477 5480 5482 5484 5485 5485 5486 5487 5489 5491 5492 5494 5495 5498 5500 5501 5501 5502
5369 5373 5378 5381 5384 5388 5391 5395 5399 5403 5408 5413 5418 5423 5429 5434 5440 5444 5448 5453 5455 5459 5462 5464 5466 5467 5469 5472 5474 5477 5478 5479 5480 5481 5482 5485 5488 5489 5489 5490 5490 5490 5492
5359 5362 5366 5370 5373 5377 5381 5385 5388 5393 5398 5403 5408 5414 5420 5425 5431 5436 5439 5443 5447 5450 5453 5454 5456 5458 5460 5461 5463 5465 5467 5470 5473 5474 5475 5477 5479 5481 5480 5480 5480 5482 5484
5349 5352 5356 5359 5363 5368 5372 5376 5379 5384 5389 5394 5400 5405 5411 5417 5422 5427 5431 5434 5438 5441 5444 5446 5447 5449 5451 5452 5454 5454 5457 5460 5464 5465 5468 5470 5469 5469 5471 5472 5472 5470 5471
5339 5343 5347 5351 5355 5360 5364 5369 5372 5376 5381 5387 5392 5397 5403 5409 5414 5418 5422 5425 5428 5432 5434 5436 5438 5440 5443 5444 5445 5446 5448 5450 5452 5454 5456 5457 5458 5459 5459 5459 5458 5459 5460
5330 5334 5338 5343 5347 5352 5357 5361 5365 5369 5374 5379 5384 5389 5395 5401 5406 5411 5413 5416 5420 5423 5425 5427 5430 5433 5435 5435 5436 5438 5439 5442 5442 5442 5443 5444 5446 5447 5448 5449 5451 5450 5450
5320 5325 5331 5336 5340 5345 5350 5354 5358 5362 5367 5371 5376 5382 5388 5394 5399 5403 5405 5408 5413 5415 5417 5420 5423 5425 5427 5427 5429 5431 5434 5433 5432 5431 5431 5431 5433 5435 5437 5438 5440 5441 5441
5312 5317 5323 5328 5333 5339 5343 5347 5350 5354 5358 5363 5369 5374 5380 5386 5391 5395 5399 5402 5405 5406 5409 5412 5414 5416 5418 5419 5420 5422 5423 5421 5420 5420 5420 5421 5422 5424 5426 5427 5428 5429 5431
5304 5309 5314 5320 5325 5331 5336 5339 5343 5346 5351 5356 5361 5366 5372 5378 5383 5387 5391 5393 5394 5396 5399 5403 5405 5406 5408 5408 5409 5410 5411 5410 5410 5410 5411 5412 5413 5414 5414 5414 5415 5416 5417
5295 5300 5306 5311 5316 5322 5327 5331 5335 5339 5344 5348 5353 5359 5364 5369 5373 5377 5380 5382 5383 5385 5387 5391 5393 5394 5395 5396 5397 5397 5398 5399 5401 5402 5402 5401 5401 5401 5402 5403 5403 5404 5403
5287 5292 5297 5303 5307 5312 5317 5321 5326 5330 5335 5341 5346 5351 5356 5361 5366 5369 5371 5373 5375 5377 5377 5377 5378 5379 5380 5382 5383 5384 5385 5386 5388 5389 5390 5390 5390 5390 5391 5391 5392 5392 5392
5281 5285 5289 5294 5298 5303 5308 5313 5317 5322 5328 5333 5338 5341 5347 5352 5357 5360 5363 5366 5367 5367 5367 5367 5367 5368 5370 5372 5373 5373 5373 5374 5376 5377 5378 5379 5379 5379 5380 5380 5380 5380 5381
5273 5277 5281 5286 5290 5294 5299 5305 5310 5316 5320 5324 5328 5333 5337 5342 5346 5351 5354 5356 5357 5357 5357 5357 5358 5358 5360 5361 5362 5363 5363 5363 5364 5365 5366 5367 5367 5368 5368 5369 5368 5368 5369
5266 5270 5274 5278 5282 5285 5290 5295 5300 5304 5309 5313 5317 5321 5326 5330 5335 5339 5342 5345 5345 5345 5345 5347 5348 5349 5350 5351 5352 5352 5352 5352 5352 5353 5355 5355 5356 5357 5357 5357 5357 5357 5358
5260 5263 5267 5271 5275 5278 5282 5286 5290 5294 5298 5302 5306 5310 5314 5318 5322 5325 5329 5330 5330 5331 5332 5334 5336 5338 5339 5340 5341 5342 5342 5342 5343 5343 5344 5345 5345 5346 5346 5347 5347 5347 5347
5252 5256 5260 5263 5267 5270 5273 5277 5280 5284 5287 5291 5294 5298 5302 5306 5308 5311 5314 5315 5317 5318 5320 5323 5326 5327 5329 5330 5331 5331 5332 5332 5332 5332 5333 5335 5335 5336 5337 5337 5338 5337 5337
5244 5248 5253 5255 5258 5261 5264 5267 5269 5272 5275 5278 5281 5285 5290 5293 5295 5297 5300 5302 5303 5305 5308 5311 5314 5316 5318 5319 5320 5320 5321 5321 5322 5323 5324 5325 5326 5326 5327 5327 5328 5328 5327
5237 5240 5244 5246 5249 5252 5254 5257 5259 5261 5264 5267 5270 5273 5278 5280 5282 5285 5287 5289 5291 5293 5296 5299 5302 5304 5307 5308 5309 5310 5311 5312 5313 5314 5316 5316 5317 5317 5317 5318 5318 5318 5317
5229 5232 5235 5237 5240 5243 5245 5247 5249 5251 5253 5256 5259 5263 5266 5268 5270 5273 5275 5277 5280 5282 5285 5288 5290 5293 5295 5297 5299 5300 5302 5303 5304 5306 5307 5307 5307 5308 5308 5309 5309 5308 5308
5221 5223 5225 5228 5230 5232 5234 5236 5238 5240 5243 5245 5248 5250 5253 5256 5258 5261 5263 5266 5269 5272 5274 5277 5280 5283 5285 5287 5289 5290 5291 5293 5295 5296 5298 5298 5298 5299 5299 5300 5300 5300 5299
5213 5215 5217 5218 5220 5222 5224 5226 5229 5231 5233 5235 5237 5240 5242 5244 5247 5250 5252 5255 5258 5261 5264 5266 5269 5272 5275 5277 5278 5280 5282 5284 5286 5287 5289 5290 5290 5291 5291 5291 5291 5290 5289
5205 5206 5208 5209 5211 5213 5215 5217 5219 5221 5223 5225 5227 5229 5231 5234 5236 5239 5242 5245 5247 5250 5253 5255 5258 5261 5264 5266 5268 5270 5272 5275 5277 5278 5279 5280 5281 5281 5281 5281 5281 5281 5280